Time,TemperatureF,DewpointF,PressureIn,WindDirection,WindDirectionDegrees,WindSpeedMPH,WindSpeedGustMPH,Humidity,HourlyPrecipIn,Conditions,Clouds,dailyrainin,SoftwareType,DateUTC
2013-06-17 00:01:00,65.0,52.0,-100.00,ENE,60,0.0,2.0,61,0.00,,,0.00,,2013-06-17 08:01:00,
2013-06-17 00:11:00,65.0,52.0,-100.00,ENE,60,0.0,2.0,61,0.00,,,0.00,,2013-06-17 08:11:00,
2013-06-17 00:20:00,63.0,53.0,-100.00,North,355,0.0,0.0,71,0.00,,,0.00,,2013-06-17 08:20:00,
2013-06-17 00:22:00,63.0,53.0,-100.00,NE,40,0.0,0.0,68,0.00,,,0.00,,2013-06-17 08:22:00,
2013-06-17 00:33:00,63.0,53.0,-100.00,NE,40,0.0,0.0,68,0.00,,,0.00,,2013-06-17 08:33:00,
2013-06-17 00:43:00,63.0,53.0,-100.00,NE,40,0.0,0.0,68,0.00,,,0.00,,2013-06-17 08:43:00,
2013-06-17 00:52:00,63.0,53.0,-100.00,North,355,0.0,0.0,71,0.00,,,0.00,,2013-06-17 08:52:00,
2013-06-17 01:02:00,63.0,53.0,-100.00,North,355,0.0,0.0,71,0.00,,,0.00,,2013-06-17 09:02:00,
2013-06-17 01:11:00,63.0,53.0,-100.00,North,355,0.0,0.0,71,0.00,,,0.00,,2013-06-17 09:11:00,
2013-06-17 01:34:00,61.0,54.0,-100.00,SW,230,0.0,1.0,76,0.00,,,0.00,,2013-06-17 09:34:00,
2013-06-17 01:43:00,61.0,54.0,-100.00,SW,230,0.0,1.0,76,0.00,,,0.00,,2013-06-17 09:43:00,
2013-06-17 01:52:00,61.0,54.0,-100.00,NNE,30,0.0,1.0,78,0.00,,,0.00,,2013-06-17 09:52:00,
2013-06-17 02:02:00,61.0,54.0,-100.00,NNE,30,0.0,1.0,78,0.00,,,0.00,,2013-06-17 10:02:00,
2013-06-17 02:12:00,61.0,54.0,-100.00,NNE,30,0.0,1.0,78,0.00,,,0.00,,2013-06-17 10:12:00,
2013-06-17 02:22:00,60.0,55.0,-100.00,NNE,15,0.0,0.0,82,0.00,,,0.00,,2013-06-17 10:22:00,
2013-06-17 02:33:00,60.0,55.0,-100.00,NNE,15,0.0,0.0,82,0.00,,,0.00,,2013-06-17 10:33:00,
2013-06-17 02:42:00,60.0,55.0,-100.00,NNE,15,0.0,0.0,82,0.00,,,0.00,,2013-06-17 10:42:00,
2013-06-17 02:53:00,59.0,55.0,-100.00,North,350,1.0,1.0,87,0.00,,,0.00,,2013-06-17 10:53:00,
2013-06-17 03:02:00,59.0,55.0,-100.00,North,350,1.0,1.0,87,0.00,,,0.00,,2013-06-17 11:02:00,
2013-06-17 03:11:00,59.0,55.0,-100.00,North,350,1.0,1.0,87,0.00,,,0.00,,2013-06-17 11:11:00,
2013-06-17 03:23:00,58.0,55.0,-100.00,NNW,340,0.0,2.0,87,0.00,,,0.00,,2013-06-17 11:23:00,
2013-06-17 03:33:00,58.0,55.0,-100.00,NNW,340,0.0,2.0,87,0.00,,,0.00,,2013-06-17 11:33:00,
2013-06-17 03:43:00,58.0,55.0,-100.00,NNW,340,0.0,2.0,87,0.00,,,0.00,,2013-06-17 11:43:00,
2013-06-17 03:53:00,58.0,55.0,-100.00,West,270,0.0,1.0,91,0.00,,,0.00,,2013-06-17 11:53:00,
2013-06-17 04:02:00,58.0,55.0,-100.00,West,270,0.0,1.0,91,0.00,,,0.00,,2013-06-17 12:02:00,
2013-06-17 04:11:00,58.0,55.0,-100.00,West,270,0.0,1.0,91,0.00,,,0.00,,2013-06-17 12:11:00,
2013-06-17 04:22:00,58.0,55.0,-100.00,East,80,1.0,1.0,90,0.00,,,0.00,,2013-06-17 12:22:00,
2013-06-17 04:33:00,58.0,55.0,-100.00,East,80,1.0,1.0,90,0.00,,,0.00,,2013-06-17 12:33:00,
2013-06-17 04:43:00,58.0,55.0,-100.00,East,80,1.0,1.0,90,0.00,,,0.00,,2013-06-17 12:43:00,
2013-06-17 04:53:00,59.0,56.0,-100.00,NE,50,1.0,2.0,92,0.00,,,0.00,,2013-06-17 12:53:00,
2013-06-17 05:01:00,59.0,56.0,-100.00,NE,50,1.0,2.0,92,0.00,,,0.00,,2013-06-17 13:01:00,
2013-06-17 05:11:00,59.0,56.0,-100.00,NE,50,1.0,2.0,92,0.00,,,0.00,,2013-06-17 13:11:00,
2013-06-17 05:22:00,59.0,55.0,-100.00,NE,40,2.0,6.0,86,0.00,,,0.00,,2013-06-17 13:22:00,
2013-06-17 05:32:00,59.0,55.0,-100.00,NE,40,2.0,6.0,86,0.00,,,0.00,,2013-06-17 13:32:00,
2013-06-17 05:43:00,59.0,55.0,-100.00,NE,40,2.0,6.0,86,0.00,,,0.00,,2013-06-17 13:43:00,
2013-06-17 05:52:00,58.0,55.0,-100.00,North,0,1.0,2.0,89,0.00,,,0.00,,2013-06-17 13:52:00,
2013-06-17 06:02:00,58.0,55.0,-100.00,North,0,1.0,2.0,89,0.00,,,0.00,,2013-06-17 14:02:00,
2013-06-17 06:11:00,58.0,55.0,-100.00,North,0,1.0,2.0,89,0.00,,,0.00,,2013-06-17 14:11:00,
2013-06-17 06:21:00,59.0,55.0,-100.00,SE,130,0.0,1.0,87,0.00,,,0.00,,2013-06-17 14:21:00,
2013-06-17 06:22:00,58.0,56.0,-100.00,ENE,60,2.0,4.0,90,0.00,,,0.00,,2013-06-17 14:22:00,
2013-06-17 06:34:00,58.0,56.0,-100.00,ENE,60,2.0,4.0,90,0.00,,,0.00,,2013-06-17 14:34:00,
2013-06-17 06:43:00,58.0,56.0,-100.00,ENE,60,2.0,4.0,90,0.00,,,0.00,,2013-06-17 14:43:00,
2013-06-17 06:53:00,59.0,55.0,-100.00,SE,130,0.0,1.0,87,0.00,,,0.00,,2013-06-17 14:53:00,
2013-06-17 07:01:00,59.0,55.0,-100.00,SE,130,0.0,1.0,87,0.00,,,0.00,,2013-06-17 15:01:00,
2013-06-17 07:12:00,59.0,55.0,-100.00,SE,130,0.0,1.0,87,0.00,,,0.00,,2013-06-17 15:12:00,
2013-06-17 07:33:00,60.0,56.0,-100.00,WSW,245,1.0,2.0,87,0.00,,,0.00,,2013-06-17 15:33:00,
2013-06-17 07:43:00,60.0,56.0,-100.00,WSW,245,1.0,2.0,87,0.00,,,0.00,,2013-06-17 15:43:00,
2013-06-17 07:52:00,65.0,55.0,-100.00,NNE,20,1.0,2.0,70,0.00,,,0.00,,2013-06-17 15:52:00,
2013-06-17 08:22:00,68.0,54.0,-100.00,NE,45,0.0,1.0,63,0.00,,,0.00,,2013-06-17 16:22:00,
2013-06-17 09:52:00,74.0,53.0,-100.00,SW,230,0.0,1.0,47,0.00,,,0.00,,2013-06-17 17:52:00,
2013-06-17 10:23:00,73.0,53.0,-100.00,West,260,2.0,4.0,49,0.00,,,0.00,,2013-06-17 18:23:00,
2013-06-17 11:22:00,79.0,47.0,-100.00,West,265,4.0,10.0,32,0.00,,,0.00,,2013-06-17 19:22:00,
2013-06-17 12:52:00,84.0,44.0,-100.00,WSW,245,4.0,12.0,25,0.00,,,0.00,,2013-06-17 20:52:00,
2013-06-17 13:22:00,82.0,44.0,-100.00,WSW,245,2.0,7.0,27,0.00,,,0.00,,2013-06-17 21:22:00,
2013-06-17 13:52:00,82.0,44.0,-100.00,WSW,245,7.0,13.0,26,0.00,,,0.00,,2013-06-17 21:52:00,
2013-06-17 14:01:00,82.0,44.0,-100.00,WSW,245,7.0,13.0,26,0.00,,,0.00,,2013-06-17 22:01:00,
2013-06-17 14:11:00,82.0,44.0,-100.00,WSW,245,7.0,13.0,26,0.00,,,0.00,,2013-06-17 22:11:00,
2013-06-17 14:20:00,72.0,47.0,-100.00,SW,235,3.0,14.0,41,0.00,,,0.00,,2013-06-17 22:20:00,
2013-06-17 14:22:00,80.0,44.0,-100.00,WNW,290,1.0,13.0,28,0.00,,,0.00,,2013-06-17 22:22:00,
2013-06-17 14:33:00,80.0,44.0,-100.00,WNW,290,1.0,13.0,28,0.00,,,0.00,,2013-06-17 22:33:00,
2013-06-17 14:43:00,80.0,44.0,-100.00,WNW,290,1.0,13.0,28,0.00,,,0.00,,2013-06-17 22:43:00,
2013-06-17 14:53:00,72.0,47.0,-100.00,SW,235,3.0,14.0,41,0.00,,,0.00,,2013-06-17 22:53:00,
2013-06-17 15:02:00,72.0,47.0,-100.00,SW,235,3.0,14.0,41,0.00,,,0.00,,2013-06-17 23:02:00,
2013-06-17 15:11:00,72.0,47.0,-100.00,SW,235,3.0,14.0,41,0.00,,,0.00,,2013-06-17 23:11:00,
2013-06-17 15:20:00,71.0,51.0,-100.00,South,180,1.0,7.0,49,0.00,,,0.00,,2013-06-17 23:20:00,
2013-06-17 15:32:00,70.0,50.0,-100.00,SW,235,7.0,19.0,49,0.00,,,0.00,,2013-06-17 23:32:00,
2013-06-17 15:42:00,70.0,50.0,-100.00,SW,235,7.0,19.0,49,0.00,,,0.00,,2013-06-17 23:42:00,
2013-06-17 15:52:00,71.0,51.0,-100.00,South,180,1.0,7.0,49,0.00,,,0.00,,2013-06-17 23:52:00,
2013-06-17 16:01:00,71.0,51.0,-100.00,South,180,1.0,7.0,49,0.00,,,0.00,,2013-06-18 00:01:00,
2013-06-17 16:12:00,71.0,51.0,-100.00,South,180,1.0,7.0,49,0.00,,,0.00,,2013-06-18 00:12:00,
2013-06-17 16:32:00,71.0,51.0,-100.00,NNW,330,1.0,7.0,50,0.00,,,0.00,,2013-06-18 00:32:00,
2013-06-17 16:43:00,71.0,51.0,-100.00,NNW,330,1.0,7.0,50,0.00,,,0.00,,2013-06-18 00:43:00,
2013-06-17 16:52:00,73.0,52.0,-100.00,SE,130,3.0,5.0,47,0.00,,,0.00,,2013-06-18 00:52:00,
2013-06-17 17:01:00,73.0,52.0,-100.00,SE,130,3.0,5.0,47,0.00,,,0.00,,2013-06-18 01:01:00,
2013-06-17 17:11:00,73.0,52.0,-100.00,SE,130,3.0,5.0,47,0.00,,,0.00,,2013-06-18 01:11:00,
2013-06-17 17:23:00,74.0,52.0,-100.00,East,100,1.0,4.0,47,0.00,,,0.00,,2013-06-18 01:23:00,
2013-06-17 17:53:00,74.0,49.0,-100.00,NW,320,1.0,6.0,42,0.00,,,0.00,,2013-06-18 01:53:00,
2013-06-17 18:02:00,74.0,49.0,-100.00,NW,320,1.0,6.0,42,0.00,,,0.00,,2013-06-18 02:02:00,
2013-06-17 18:11:00,74.0,49.0,-100.00,NW,320,1.0,6.0,42,0.00,,,0.00,,2013-06-18 02:11:00,
2013-06-17 18:22:00,73.0,42.0,-100.00,West,265,2.0,9.0,32,0.00,,,0.00,,2013-06-18 02:22:00,
2013-06-17 18:34:00,73.0,42.0,-100.00,West,265,2.0,9.0,32,0.00,,,0.00,,2013-06-18 02:34:00,
2013-06-17 18:43:00,73.0,42.0,-100.00,West,265,2.0,9.0,32,0.00,,,0.00,,2013-06-18 02:43:00,
2013-06-17 18:53:00,72.0,41.0,-100.00,NW,315,2.0,9.0,32,0.00,,,0.00,,2013-06-18 02:53:00,
2013-06-17 19:02:00,72.0,41.0,-100.00,NW,315,2.0,9.0,32,0.00,,,0.00,,2013-06-18 03:02:00,
2013-06-17 19:12:00,72.0,41.0,-100.00,NW,315,2.0,9.0,32,0.00,,,0.00,,2013-06-18 03:12:00,
2013-06-17 19:23:00,71.0,39.0,-100.00,WNW,295,2.0,11.0,32,0.00,,,0.00,,2013-06-18 03:23:00,
2013-06-17 19:34:00,71.0,39.0,-100.00,WNW,295,2.0,11.0,32,0.00,,,0.00,,2013-06-18 03:34:00,
2013-06-17 19:42:00,71.0,39.0,-100.00,WNW,295,2.0,11.0,32,0.00,,,0.00,,2013-06-18 03:42:00,
2013-06-17 19:53:00,70.0,38.0,-100.00,West,260,2.0,23.0,32,0.00,,,0.00,,2013-06-18 03:53:00,
2013-06-17 20:01:00,70.0,38.0,-100.00,West,260,2.0,23.0,32,0.00,,,0.00,,2013-06-18 04:01:00,
2013-06-17 20:11:00,70.0,38.0,-100.00,West,260,2.0,23.0,32,0.00,,,0.00,,2013-06-18 04:11:00,
2013-06-17 20:22:00,70.0,40.0,-100.00,West,270,3.0,14.0,33,0.00,,,0.00,,2013-06-18 04:22:00,
2013-06-17 20:34:00,70.0,40.0,-100.00,West,270,3.0,14.0,33,0.00,,,0.00,,2013-06-18 04:34:00,
2013-06-17 20:43:00,70.0,40.0,-100.00,West,270,3.0,14.0,33,0.00,,,0.00,,2013-06-18 04:43:00,
2013-06-17 20:53:00,69.0,38.0,-100.00,North,0,2.0,7.0,33,0.00,,,0.00,,2013-06-18 04:53:00,
2013-06-17 21:02:00,69.0,38.0,-100.00,North,0,2.0,7.0,33,0.00,,,0.00,,2013-06-18 05:02:00,
2013-06-17 21:12:00,69.0,38.0,-100.00,North,0,2.0,7.0,33,0.00,,,0.00,,2013-06-18 05:12:00,
2013-06-17 21:21:00,65.0,37.0,-100.00,WNW,285,4.0,16.0,36,0.00,,,0.00,,2013-06-18 05:21:00,
2013-06-17 21:22:00,67.0,38.0,-100.00,WSW,245,2.0,12.0,34,0.00,,,0.00,,2013-06-18 05:22:00,
2013-06-17 21:33:00,67.0,38.0,-100.00,WSW,245,2.0,12.0,34,0.00,,,0.00,,2013-06-18 05:33:00,
2013-06-17 21:43:00,67.0,38.0,-100.00,WSW,245,2.0,12.0,34,0.00,,,0.00,,2013-06-18 05:43:00,
2013-06-17 21:53:00,65.0,37.0,-100.00,WNW,285,4.0,16.0,36,0.00,,,0.00,,2013-06-18 05:53:00,
2013-06-17 22:02:00,65.0,37.0,-100.00,WNW,285,4.0,16.0,36,0.00,,,0.00,,2013-06-18 06:02:00,
2013-06-17 22:11:00,65.0,37.0,-100.00,WNW,285,4.0,16.0,36,0.00,,,0.00,,2013-06-18 06:11:00,
2013-06-17 22:32:00,64.0,36.0,-100.00,West,265,7.0,17.0,36,0.00,,,0.00,,2013-06-18 06:32:00,
2013-06-17 22:43:00,64.0,36.0,-100.00,West,265,7.0,17.0,36,0.00,,,0.00,,2013-06-18 06:43:00,
2013-06-17 22:52:00,64.0,37.0,-100.00,West,265,6.0,19.0,37,0.00,,,0.00,,2013-06-18 06:52:00,
2013-06-17 23:02:00,64.0,37.0,-100.00,West,265,6.0,19.0,37,0.00,,,0.00,,2013-06-18 07:02:00,
2013-06-17 23:22:00,62.0,36.0,-100.00,North,0,4.0,9.0,39,0.00,,,0.00,,2013-06-18 07:22:00,
2013-06-17 23:33:00,62.0,36.0,-100.00,North,0,4.0,9.0,39,0.00,,,0.00,,2013-06-18 07:33:00,
2013-06-17 23:43:00,62.0,36.0,-100.00,North,0,4.0,9.0,39,0.00,,,0.00,,2013-06-18 07:43:00,
2013-06-17 23:52:00,60.0,36.0,-100.00,North,0,1.0,6.0,42,0.00,,,0.00,,2013-06-18 07:52:00,